Terug naar catalogus

DELTA 1 DEB

ActiefLEO
NORAD 7180·DEBRIS·🇺🇸 United States

Gelanceerd Nov 6, 1973 vanaf Vandenberg Space Force Base

Loading…

Volgende Passages (komende 24 uur)

TLE

VersSource: Space-Track

Epoch: Sep 13, 2026, 21:22 UTC

1 07180U 73086ER  26256.89075171  .00000891  00000-0  39877-2 0  9993
2 07180 102.2393   9.3640 0146046 329.1055 150.3970 12.79512724452035

Volg DELTA 1 DEB in realtime met AllMySat

Download on the App Store